#timestamp,LO_Frequency,Hit,StdDev 
1459436415.0,286047005.3,N
1459436415.9,286047005.3,N
1459436435.7,286047005.1,N
1459436455.6,286047001.6,N
1459436475.4,286047002.2,N
1459436495.2,286047002.5,N
1459436515.1,286046999.9,N
1459436516.0,286046999.9,N
1459436535.8,286047003.8,N
1459436555.6,286047008.7,Y
1459436575.5,286047001.5,P
1459436595.3,286047002.1,N
1459436615.1,286047001.4,N
1459436635.9,286047001.8,N
1459436655.7,286047000.7,N
1459436675.5,286047002.1,N
1459436695.4,286047001.8,N
1459436715.2,286047000.9,N
1459436735.0,286046999.9,N
1459436735.9,286046999.9,N
1459436755.8,286047002.5,N
1459436775.6,286047000.5,N
1459436795.4,286046998.7,N
1459436815.2,286046999.2,N
1459436835.1,286047000.4,N
1459436836.0,286047000.4,N
1459436855.8,286047002.8,N
1459436875.6,286047000.9,N
1459436895.5,286046999.9,N
1459436915.3,286046997.0,N
1459436935.1,286046998.8,N
1459436955.9,286046998.5,N
1459436975.7,286047001.2,N
1459436995.5,286046999.3,N
1459437015.4,286046999.8,N
1459437035.2,286047001.1,N
1459437055.0,286047001.1,N
1459437055.9,286047001.1,N
1459437075.8,286046999.2,N
1459437095.6,286046997.1,N
1459437115.4,286046995.7,Y
1459437135.3,286046993.4,P
1459437155.1,286046993.6,N
1459437156.0,286046993.6,N
1459437175.8,286046997.7,N
1459437195.7,286046996.6,N
1459437215.5,286046996.9,N
1459437235.3,286046997.6,N
1459437255.1,286046994.0,N
1459437275.9,286046993.3,N
1459437295.7,286046994.5,N
1459437315.5,286046997.6,N
1459437335.4,286046995.8,N
1459437355.2,286046994.5,N
1459437375.0,286046996.0,N
1459437375.9,286046996.0,N
1459437395.8,286046993.7,Y
1459437415.6,286047000.0,P
1459437435.4,286047004.3,N
1459437455.3,286047001.8,N
1459437475.1,286047003.6,N
1459437476.0,286047003.6,N
1459437495.8,286047005.2,N
1459437515.7,286047003.0,N
1459437535.5,286047003.1,N
1459437555.3,286047003.4,N
1459437575.2,286047003.4,N
1459437595.9,286047005.6,N
1459437615.7,286047004.2,N
1459437635.6,286047003.8,N
1459437655.4,286047001.5,N
1459437675.2,286047005.7,N
1459437695.0,286047006.2,N
1459437695.9,286047006.2,N
1459437715.8,286047006.5,N
1459437735.6,286047009.9,Y
1459437755.4,286047007.3,P
1459437775.3,286047006.4,P
1459437795.1,286047010.5,P
1459437815.9,286047009.2,Y
1459437835.7,286047000.8,P
1459437855.5,286047000.2,N
1459437875.3,286047000.6,N
1459437895.2,286046996.5,N
1459437915.0,286046998.2,N
1459437915.9,286046998.2,N
1459437935.7,286047001.9,N
1459437955.6,286047003.5,N
1459437975.4,286047002.0,N
1459437995.2,286047001.8,N
1459438015.1,286047006.0,N
1459438016.0,286047006.0,N
1459438035.8,286047007.0,N
1459438055.6,286047004.9,N
1459438075.5,286047007.5,N
1459438095.3,286047005.0,N
1459438115.1,286047005.4,N
1459438135.9,286047004.8,N
1459438155.7,286047005.0,N
1459438175.5,286047007.4,N
1459438195.3,286047006.1,N
1459438215.2,286047006.9,N
1459438235.0,286047007.4,N
1459438235.9,286047007.4,N
1459438255.7,286047007.4,N
1459438275.6,286047005.1,N
1459438295.4,286047007.3,N
1459438315.2,286047006.7,N
1459438335.1,286047009.1,N
1459438336.0,286047009.1,N
1459438355.8,286047010.1,Y
1459438375.6,286047005.4,P
1459438395.5,286047007.1,P
1459438415.3,286047005.4,P
1459438435.1,286047003.2,Y
1459438455.9,286047000.9,P
1459438475.7,286047000.1,N
1459438495.5,286046999.8,N
1459438515.4,286046997.0,N
1459438535.2,286047001.1,N
1459438555.0,286047002.3,N
1459438555.9,286047002.3,N
1459438575.8,286046999.8,N
1459438595.6,286047002.4,N
1459438615.4,286047002.8,N
1459438635.3,286047004.7,N
1459438655.1,286047004.9,N
1459438656.0,286047004.9,N
1459438675.8,286047003.1,N
1459438695.7,286047004.3,N
1459438715.5,286047003.6,N
1459438735.3,286047001.8,N
1459438755.1,286047002.4,N
1459438775.9,286046999.7,N
1459438795.7,286047002.6,N
1459438815.5,286046998.6,N
1459438835.4,286047000.2,N
1459438855.2,286046999.7,N
1459438875.0,286046999.8,N
1459438875.9,286046999.8,N
1459438895.8,286047001.7,N
1459438915.6,286047003.5,N
1459438935.4,286047002.1,N
1459438955.3,286047002.4,N
1459438975.1,286046998.7,N
1459438976.0,286046998.7,N
1459438995.8,286046997.2,N
1459439015.7,286046994.9,N
1459439035.5,286046997.0,N
1459439055.3,286046996.6,N
1459439075.1,286046994.9,N
1459439095.9,286046993.5,N
1459439115.7,286046995.3,N
1459439135.5,286046996.4,N
1459439155.4,286046993.4,N
1459439175.2,286046994.0,N
1459439195.0,286046995.6,N
1459439195.9,286046995.6,N
1459439215.8,286046999.1,N
1459439235.6,286046999.0,N
1459439255.4,286046999.0,N
1459439275.3,286046997.3,N
1459439295.1,286046999.2,N
1459439296.0,286046999.2,N
1459439315.8,286047001.7,N
1459439335.7,286047002.3,N
1459439355.5,286046998.5,N
1459439375.3,286046997.0,N
1459439395.2,286046999.0,N
1459439415.9,286047000.9,N
1459439435.7,286046999.0,N
1459439455.6,286046997.3,N
1459439475.4,286046998.4,N
1459439495.2,286047000.1,N
1459439515.0,286047001.6,N
1459439516.0,286047001.6,N
1459439535.8,286047003.6,N
1459439555.6,286047005.6,N
1459439575.4,286047003.5,N
1459439595.3,286047001.7,N
1459439615.1,286047004.0,N
1459439635.8,286047001.8,N
1459439655.7,286047003.1,N
1459439675.5,286047005.7,N
1459439695.3,286047005.1,N
1459439715.2,286047007.3,N
1459439735.9,286047004.7,N
1459439755.7,286047004.9,N
1459439775.6,286047005.2,N
1459439795.4,286047007.5,N
1459439815.2,286047007.0,N
1459439835.1,286047004.5,N
1459439836.0,286047004.5,N
1459439855.8,286047005.2,N
1459439875.6,286047005.2,N
1459439895.5,286047004.9,N
1459439915.3,286047003.2,N
1459439935.1,286047004.4,N
1459439955.8,286047001.5,N
1459439975.7,286047003.1,N
1459439995.5,286047006.6,N
